FREGAT R/B, 63131

Orbit data source: Space-Track

FREGAT R/B, 63131 is space debris in MEO originally from a launch on Sun, 02 Mar 2025 UTC launched from the Plesetsk Missile And Space Complex (PKMTR). Debris objects in space refer to the collection of defunct objects orbiting the Earth. Examples of debris include non-operational satellites, rocket bodies, and fragments generated from explosions, collisions, or faulty payload assembly.

Loading next visibility...
Identifier
63131, 2025-042B
Orbit
MEO
Country
Flag of CISCIS
Related business
Manufacturer
Lavochkin
Mission
Spacecraft
Bus & Motor
FREGAT, Unknown motor
Mass
1,000 kg wet, 1,000 kg dry
Launch date (UTC)
2025-03-02 (8 months ago)
Launch vehicle
Unknown
Launch site
Plesetsk Missile And Space Complex (PKMTR)
Object type
Payload
Rocket body
Debris
Shape & HBR
Cyl, 8.0 m
Radar Cross Section
8.354 m², Large (>1 m²)

Expand to show TLE details & history
Last TLE update: 15 hours ago

TLE from 15 hours ago
0 FREGAT R/B
1 63131U 25042B   25309.96956924  .00000006  00000-0  00000-0 0  9992
2 63131  64.9576  80.3453 0017001 193.6597 166.2754  2.13753451  5293
Epoch: 2025-11-05T23:16Z
TLE epoch observation values (Epoch: 2025-11-05T23:16:10.782Z)
Latitude
0.00008°
Longitude
45.85128°
Altitude
19,120.695 km
Speed
3.951 km/s
True Right ascension
05h 21m 19s
True Declination
0° 00' 00"
Sunlit
Object was in daylight at epoch
Visualization orbit readout
Latitude
Unknown
Longitude
Unknown
Altitude
Unknown
Speed
Unknown
Apparent Right ascension
Unknown
Apparent Declination
Unknown
Sunlit
N/A
Visualization observer readout
Local Sidereal Time
10:33:20
Azimuth
Unknown
Elevation
Unknown
Doppler factor
Unknown
Orbital elements
Apogee altitude
19,120.927 km
Perigee altitude
19,034.372 km
Semi-major axis
25,455.787 km
Eccentricity
0.0017
Inclination
64.9576°
RAAN
80.3453°
Arg. of periapsis
193.6597°
True anomaly
166.32153°
Mean anomaly
166.2754°
Eccentric anomaly
166.29847°
Mean motion
0.5344 °/min
Orbital period
673.66 mins
BSTAR
0
Loading maneuver chart data...
Computing Atmospheric mass density...
Loading historical data...
Loading historical data...
Loading historical data...
Loading historical data...
Loading historical data...
Loading historical data...
Loading historical data...
Other satellites on launch #42 in the year 2025 (2025-03-02 UTC)

Documentation

Showing up to 5 results
|